FW7336 Weather Reports


time (UTC)temp
C
wind
direction
speed
KPH
gust
KPH
rain 1hr
cm
rain 24hr
cm
rain mn
cm
humidity
%
barometer
mb
20260506050109 5 339 11.3 17.7 0.00 0.00 0.00 85 1015.4
20260506044558 5 358 11.3 20.9 0.00 0.00 0.00 86 1015.3
20260506043057 5 344 11.3 17.7 0.00 0.00 0.00 86 1015.4
20260506041602 5 354 6.4 12.9 0.00 0.00 0.00 86 1015.6
20260506040131 5 333 6.4 11.3 0.00 0.00 0.00 86 1015.6
20260506034600 5 337 6.4 11.3 0.00 0.00 0.00 85 1015.6
20260506033056 6 1 9.7 14.5 0.00 0.00 0.00 85 1015.7
20260506031602 6 328 9.7 16.1 0.00 0.00 0.00 84 1015.8
20260506030058 6 13 4.8 14.5 0.00 0.00 0.00 85 1015.8
20260506024601 6 338 8.0 14.5 0.00 0.00 0.00 84 1015.7
20260506023054 6 15 11.3 17.7 0.00 0.00 0.00 84 1015.7
20260506021556 6 334 9.7 17.7 0.00 0.00 0.00 84 1015.7
20260506020121 6 349 12.9 17.7 0.00 0.00 0.00 84 1015.9
20260506014612 7 339 8.0 19.3 0.00 0.00 0.00 84 1015.9
20260506013102 7 335 11.3 19.3 0.00 0.00 0.00 84 1015.9
20260506011617 7 14 14.5 22.5 0.00 0.00 0.00 84 1016.1
20260506010141 7 13 12.9 24.1 0.00 0.00 0.00 84 1015.9
20260506001609 7 22 11.3 22.5 0.00 0.00 0.00 81 1016.1
20260506000139 7 3 16.1 25.7 0.00 0.00 0.00 81 1016.0
20260505234556 7 347 19.3 30.6 0.00 0.00 0.00 80 1016.1
20260505233059 7 9 17.7 27.4 0.00 0.00 0.00 80 1016.1
20260505231612 7 5 19.3 29.0 0.00 0.00 0.00 78 1016.2
20260505230105 7 7 12.9 25.7 0.00 0.00 0.00 79 1016.1
20260505224627 8 16 9.7 20.9 0.00 0.00 0.00 78 1016.3
20260505223056 8 36 11.3 19.3 0.00 0.00 0.00 78 1016.3
20260505221600 8 27 11.3 19.3 0.00 0.00 0.00 78 1016.2
20260505220101 8 37 14.5 22.5 0.00 0.00 0.00 77 1016.4
20260505214600 8 10 14.5 25.7 0.00 0.00 0.00 79 1016.5
20260505213201 8 39 22.5 29.0 0.00 0.00 0.00 78 1016.4
20260505211557 8 40 19.3 32.2 0.00 0.00 0.00 79 1016.4
20260505210059 9 29 16.1 29.0 0.00 0.00 0.00 80 1016.4
20260505204801 9 32 14.5 20.9 0.00 0.00 0.00 79 1016.4
20260505203147 9 346 20.9 32.2 0.00 0.00 0.00 77 1016.3
20260505201555 10 39 25.7 32.2 0.00 0.00 0.00 78 1016.1
20260505200052 10 42 17.7 27.4 0.00 0.00 0.00 75 1015.9
20260505194606 10 39 20.9 25.7 0.00 0.00 0.00 75 1015.8
20260505193052 10 26 16.1 25.7 0.00 0.00 0.00 75 1015.7
20260505191606 10 10 22.5 33.8 0.00 0.00 0.00 73 1015.5
20260505190055 10 20 20.9 29.0 0.00 0.00 0.00 82 1015.4
20260505184554 10 41 24.1 29.0 0.00 0.00 0.00 81 1015.2
20260505183056 10 1 17.7 25.7 0.00 0.00 0.00 81 1015.1
20260505181557 11 39 19.3 30.6 0.00 0.00 0.00 82 1015.2
20260505174556 11 45 20.9 29.0 0.00 0.00 0.00 81 1015.2
20260505173112 11 42 19.3 27.4 0.00 0.00 0.00 79 1015.1
20260505171618 11 46 24.1 30.6 0.00 0.00 0.00 79 1015.1
20260505170056 11 39 27.4 40.2 0.00 0.00 0.00 78 1014.9
20260505163053 13 336 12.9 20.9 0.00 0.00 0.00 62 1014.6
20260505161557 13 322 14.5 20.9 0.00 0.00 0.00 62 1014.7
20260505153107 13 11 14.5 19.3 0.00 0.00 0.00 61 1014.7
20260505151601 13 352 16.1 20.9 0.00 0.00 0.00 61 1014.6
20260505150111 13 335 12.9 20.9 0.00 0.00 0.00 62 1014.5
20260505140154 13 328 6.4 11.3 0.00 0.00 0.00 61 1014.4
20260505124949 13 332 11.3 19.3 0.00 0.00 0.00 64 1014.5
20260505121624 13 328 9.7 16.1 0.00 0.00 0.00 64 1014.5
20260505120057 12 328 9.7 16.1 0.00 0.00 0.00 65 1014.6
20260505114554 12 313 9.7 12.9 0.00 0.00 0.00 68 1014.6
20260505113059 12 41 11.3 16.1 0.00 0.00 0.00 67 1014.6
20260505111555 12 3 6.4 12.9 0.00 0.00 0.00 68 1014.7
20260505094558 11 342 14.5 19.3 0.00 0.00 0.00 71 1015.2
20260505084603 11 325 11.3 19.3 0.00 0.00 0.00 76 1015.3
20260505061626 6 266 1.6 3.2 0.00 0.00 0.00 96 1015.5
20260505054920 6 266 0.0 3.2 0.00 0.00 0.00 96 1015.4
20260505053151 5 263 1.6 3.2 0.00 0.00 0.00 95 1015.3